Regional Weather Roundup
Issued by NWS New Orleans/Baton Rouge, LA

Home | Current Version | Previous Version | Text Only | Print | Product List | Glossary Off
Versions: 1 2 3 4 5 6 7 8 9 10 11 12 13 14 15 16 17 18 19 20 21 22 23 24 25 26 27 28 29 30 31 32 33 34 35 36 37 38 39 40 41 42 43 44 45 46 47 48 49 50

217
ASUS44 KLIX 200905
RWRLIX
NEW ORLEANS REGIONAL WEATHER ROUNDUP
NATIONAL WEATHER SERVICE NEW ORLEANS LA
300 AM CST SAT DEC 20 2014

NOTE: "FAIR" INDICATES FEW OR NO CLOUDS BELOW 12,000 FEET WITH NO
      SIGNIFICANT WEATHER AND/OR OBSTRUCTIONS TO VISIBILITY.
      SKY/WX - SKY CONDITION AND SIGNIFICANT WEATHER.
      TMP - AIR TEMPERATURE.     DP    - DEWPOINT TEMPERATURE.
      RH  - RELATIVE HUMIDITY.   PRES  - PRESSURE.
      HI  - HEAT INDEX.          WCI   - WIND CHILL INDEX.

*  THESE STATIONS ARE NOT NWS OR FAA STATIONS AND ARE NOT UNDER
   NWS QUALITY CONTROL.

LAZ038-040-048-061>063-065>067-069-201000-
SOUTHEAST LOUISIANA

CITY           SKY/WX    TMP DP  RH WIND       PRES   REMARKS
N.O. AUDUBON     N/A     52  50  94 MISG        N/A
N.O. INTL ARPT CLOUDY    52  49  89 NE12      30.05F
N.O. LAKEFRONT CLOUDY    53  50  89 NE17      30.06F
N.O. DOWNTOWN* CLOUDY    52  46  82 NE3       30.06S
SLIDELL        CLOUDY    50  47  89 N8        30.07R
BATON ROUGE    CLOUDY    48  45  89 N8        30.11R
BOOTHVILLE     RAIN      57  56  96 N13G23    30.02R FOG
BELLE CHASSE   LGT RAIN  51  49  92 NE10      30.04F
BOGALUSA*        N/A     49  45  88 N10       30.12R
GALLIANO*      CLOUDY    53  52  96 MISG      30.03S
NEW ROADS*     CLOUDY    47  46  95 N8        30.12S
GONZALES*      CLOUDY    49  49 100 N7        30.08R
HAMMOND*       NOT AVBL
HOUMA*         CLOUDY    50  49  97 NE9       30.04S
PORT FOURCHON* CLOUDY    55  54  94 NE18      30.04S

$$

MSZ070-080>082-201000-
SOUTHERN MISSISSIPPI

CITY           SKY/WX    TMP DP  RH WIND       PRES   REMARKS
MCCOMB         CLOUDY    46  43  89 N7        30.11F
GULFPORT       LGT RAIN  48  46  93 N9        30.07S
BILOXI         LGT RAIN  48  48 100 NE13      30.07S
PASCAGOULA     RAIN      47  46  97 NE7       30.08S FOG

$$

COASTAL OBSERVATIONS
LAKE AND NEARSHORE STATIONS

STATION/POSITION TIME  TEMP    WIND        PRES    WAVE
                       AIR SEA DIR/SP/G            HT/PER
                 (UTC) (F)     (DEG/KT/KT) (MB)    (FT/S)
PASCAGOULA       0900   48      10/ 11/ 14 1017.9
WAVELAND YACHT   0900   49      50/ 12/ 13 1017.3
GRAND ISLE       0900   54 62   40/ 14/ 20 1016.7
SOUTHWEST PASS   0900   60                 1015.2
NEW CANAL        0900   53 56   50/ 14/ 16 1017.9
SHELL BEACH      0900   51 58   40/ 18/ 21 1017.7

OFFSHORE STATIONS

STATION/POSITION TIME  TEMP    WIND        PRES    WAVE
                       AIR SEA DIR/SP/G            HT/PER
                 (UTC) (F)     (DEG/KT/KT) (MB)    (FT/S)
64 S DAUPHIN ISL 0900   68 75  110/ 17/ 21 1015.2    5/ 6

$$




USA.gov is the U.S. government's official web portal to all federal, state and local government web resources and services.